Flag for Romania Weather past 2 weeks in Cluj-Napoca, Romania

Now
34 °F

Clear.


Feels Like: 28 °F
Forecast: 31 / 42 °F
Wind: 7 mph from Northeast

Location: Cluj Airport-Napoca

Current Time: Jan 30, 2015 at 7:45:35 AM

Latest Report: Jan 30, 2015 at 7:00 AM


Visibility: 10 mi

Pressure: 29.33 "Hg

Humidity: 93%

Dew point: 32 °F

Location of Cluj-NapocaLocation

Historic Weather in Cluj-Napoca — Graph

°F

Cluj-Napoca temperature yesterday

Maximum temperature yesterday: 39 °F (at 2:00 PM)
Minimum temperature yesterday: 32 °F (at 5:00 AM)
Average temperature yesterday: 35 °F

Past Weeks' High & Low Weather Summary

 TemperatureHumidityPressure
High50 °F (Jan 22, 3:00 PM)100% (Jan 15, 7:00 AM)30.24 "Hg (Jan 15, 7:00 AM)
Low25 °F (Jan 17, 7:00 AM)62% (Jan 24, 3:30 PM)29.33 "Hg (Jan 30, 5:30 AM)
Average36 °F95%29.97 "Hg
* Reported Jan 15 7:00 AM — Jan 30 7:00 AM, Cluj-Napoca, Weather by CustomWeather, © 2014

Note: Actual official high and low records may vary slightly from our data, if they occured in-between our weather recording intervals... More about our weather records

Advertising

Cluj-Napoca weather history for previous 24 hours

 ConditionsComfort  
Time TempWeatherWind HumidityBarometerVisibility
7:00 AM
Jan 30
34 °FClear.7 mph93%29.33 "Hg10 mi
6:30 AM36 °FClear.7 mph87%29.33 "Hg10 mi
6:00 AM36 °FPassing clouds.5 mph81%29.33 "HgN/A
5:30 AM36 °FPassing clouds.6 mph87%29.33 "HgN/A
4:00 AM36 °FClear.6 mph87%29.36 "Hg10 mi
3:00 AM36 °FPassing clouds.6 mph87%29.39 "HgN/A
2:00 AM34 °FClear.5 mph100%29.42 "Hg10 mi
1:00 AM32 °FClear.No wind100%29.45 "Hg10 mi
12:00 AM32 °FClear.1 mph100%29.47 "Hg10 mi
11:30 PM
Jan 29
34 °FClear.1 mph100%29.47 "Hg10 mi
11:00 PM34 °FPassing clouds.3 mph93%29.50 "HgN/A
10:30 PM32 °FClear.2 mph100%29.50 "Hg10 mi
10:00 PM32 °FClear.5 mph100%29.50 "Hg10 mi
9:30 PM34 °FClear.2 mph93%29.53 "Hg10 mi
9:00 PM34 °FClear.2 mph93%29.53 "Hg10 mi
8:30 PM34 °FClear.No wind93%29.53 "Hg10 mi
8:00 PM34 °FClear.2 mph100%29.53 "Hg10 mi
7:30 PM36 °FPassing clouds.5 mph93%29.53 "HgN/A
7:00 PM36 °FPassing clouds.6 mph93%29.53 "HgN/A
6:00 PM36 °FPassing clouds.6 mph93%29.56 "HgN/A
5:00 PM37 °FScattered clouds.8 mph87%29.56 "HgN/A
4:30 PM37 °FScattered clouds.6 mph87%29.56 "HgN/A
4:00 PM37 °FScattered clouds.12 mph87%29.56 "HgN/A
3:30 PM37 °FScattered clouds.9 mph87%29.56 "HgN/A
3:00 PM39 °FPartly sunny.12 mph81%29.59 "HgN/A
2:00 PM39 °FPartly sunny.9 mph81%29.62 "HgN/A
1:30 PM37 °FPartly sunny.9 mph87%29.62 "HgN/A
1:00 PM37 °FPartly sunny.10 mph81%29.65 "HgN/A
12:30 PM37 °FPartly sunny.9 mph81%29.65 "HgN/A
12:00 PM37 °FPartly sunny.12 mph81%29.65 "HgN/A
11:30 AM36 °FPartly sunny.14 mph93%29.68 "HgN/A
11:00 AM36 °FBroken clouds.10 mph93%29.68 "HgN/A
10:30 AM36 °FBroken clouds.10 mph93%29.68 "HgN/A
10:00 AM34 °FBroken clouds.10 mph93%29.71 "HgN/A
9:00 AM34 °FBroken clouds.7 mph93%29.71 "HgN/A
8:30 AM34 °FBroken clouds.9 mph93%29.71 "Hg5 mi
8:00 AM34 °FMostly cloudy.8 mph93%29.74 "Hg5 mi
7:30 AM34 °FPassing clouds.7 mph93%29.74 "HgN/A
7:00 AM34 °FPassing clouds.6 mph93%29.77 "HgN/A
Weather by CustomWeather, © 2014

See weather overviewHow to use our weather pages